Wind_Speed
4 7 12 8 12 12 15 11 11 11 12 27 29 26 31 37 37 34 33 29 27 28 28 27 25 23 24 22 20 18 16 15 12 7 16 12 10 12 11 11 8 8 6
3 1 6 4 8 4 8 7 15 15 7 19 26 27 31 33 35 32 33 33 31 29 29 27 26 25 26 24 20 19 16 14 12 8 4 2 3 8 13 12 11 8 5
6 5 3 6 6 5 9 1 14 21 24 13 10 14 20 25 25 24 23 30 31 29 27 29 25 23 26 25 22 19 17 15 7 12 4 1 4 3 10 12 11 10 7
4 5 6 6 5 1 4 7 10 20 23 20 12 22 21 15 17 24 21 21 22 25 26 26 25 23 24 25 22 23 19 15 15 8 12 11 3 2 1 6 10 10 12
10 7 7 7 11 3 8 7 18 24 21 20 14 13 19 12 12 6 14 17 16 18 20 20 17 13 15 12 12 11 11 14 18 15 12 15 18 12 3 3 4 10 12
10 8 5 14 6 1 4 20 27 22 30 21 15 9 8 7 5 2 2 1 12 16 17 14 14 16 17 15 16 13 12 15 15 17 17 18 10 7 5 1 3 7 10
9 6 4 4 5 3 11 19 8 17 20 14 11 5 4 3 10 10 11 11 15 15 14 15 19 22 23 26 24 22 20 18 19 21 20 21 22 12 16 9 6 4 5
11 11 6 4 3 1 3 1 5 7 17 8 11 16 20 18 19 22 22 24 18 23 21 23 25 27 30 30 29 29 25 25 24 23 25 26 23 19 16 12 8 2 4
11 6 5 8 13 10 6 2 5 6 10 10 9 11 14 15 17 24 25 26 31 27 29 33 34 35 30 29 29 34 32 30 26 27 21 23 19 18 18 18 17 10 4
9 8 6 14 15 17 14 11 5 6 1 2 7 15 20 22 26 30 36 31 36 35 37 39 40 38 36 36 30 36 35 29 27 25 23 22 20 19 18 18 17 13 11
8 5 8 15 20 22 22 20 17 14 11 7 4 2 8 11 12 13 17 22 28 34 32 32 31 29 30 30 33 35 33 29 23 23 24 24 22 21 19 18 16 16 15
6 8 9 16 20 23 22 21 20 18 16 13 11 9 7 6 9 12 14 15 17 19 18 18 19 21 24 27 29 31 29 24 26 26 25 24 23 21 21 20 19 18 17
9 8 9 13 19 22 25 26 24 22 20 19 17 13 10 11 12 11 11 13 15 17 18 18 19 20 24 26 28 29 26 28 28 28 28 27 25 24 22 21 19 18 16
9 8 8 10 16 18 21 21 20 20 20 19 17 16 17 16 15 14 15 16 17 18 18 20 21 22 24 27 28 30 29 28 27 27 27 27 28 27 23 22 21 19 17
9 8 9 6 12 18 20 20 19 19 20 20 21 22 21 19 17 17 18 17 20 22 21 21 23 25 28 30 32 31 29 28 27 25 25 24 23 20 19 21 21 19 18
6 5 8 13 13 20 24 23 21 19 20 20 21 22 22 23 24 24 22 20 20 22 23 24 26 28 30 32 32 32 30 28 30 28 24 22 20 19 17 18 20 20 20
0 4 4 6 15 18 18 18 17 18 20 20 21 22 24 26 28 25 26 25 24 24 24 25 28 30 33 33 33 33 33 29 27 29 27 25 22 21 21 21 21 19 17
1 2 1 7 11 15 17 19 18 18 18 17 18 18 20 22 25 28 29 28 27 27 27 29 30 32 33 34 34 33 32 31 33 32 31 27 25 23 22 22 20 18 18
11 15 20 22 23 27 27 27 25 23 20 20 22 22 23 24 25 26 28 30 32 32 32 33 33 34 35 34 32 31 33 34 37 35 35 29 26 24 23 22 21 19 17
11 14 18 19 19 20 24 27 29 32 34 36 35 35 31 25 25 25 28 27 30 32 31 32 37 39 38 35 33 34 31 26 32 33 30 29 29 28 27 26 24 21 19
8 8 9 11 13 18 18 21 21 20 24 29 37 39 39 37 35 32 26 25 26 30 31 32 34 37 39 40 38 35 34 29 28 32 32 31 28 28 28 27 26 24 21
3 5 6 8 10 13 12 14 16 20 22 26 27 31 34 35 36 39 37 29 24 28 28 25 27 30 35 38 39 40 40 33 32 32 33 33 30 28 29 26 25 21 20
6 7 8 8 8 8 10 13 16 18 19 22 22 26 30 32 33 35 35 32 27 26 22 22 24 23 26 31 37 40 42 40 37 34 36 33 29 28 27 25 24 23 25
8 8 7 7 8 8 11 13 17 18 19 20 21 24 26 27 29 30 32 30 27 24 22 22 20 22 22 26 30 34 37 35 30 29 30 29 31 28 28 23 23 27 28
9 9 8 7 11 12 16 18 21 21 21 21 23 23 24 26 27 27 29 30 32 29 26 26 24 22 21 28 32 32 33 35 36 33 29 28 28 27 28 28 29 27 28
12 13 10 11 15 17 22 23 26 21 23 24 24 25 27 27 27 27 31 31 33 35 34 37 33 29 34 32 34 39 41 38 35 29 29 26 28 27 27 28 30 30 29
Wind_Direction
252 298 303 272 229 219 228 237 239 261 137 162 169 172 177 178 181 188 189 185 188 191 193 195 193 200 195 196 199 204 213 214 218 232 246 234 219 239 215 197 218 243 242
276 315 274 164 112 181 207 233 196 193 171 135 159 181 194 179 178 183 185 190 194 195 197 199 197 201 201 200 202 204 211 216 219 217 215 232 215 221 191 205 227 204 208
222 156 184 163 129 114 102 146 202 167 164 153 152 196 191 185 181 184 182 192 197 197 202 198 201 203 202 200 196 201 203 202 192 218 199 255 219 162 190 184 195 197 199
157 145 205 194 126 153 159 195 215 179 171 168 191 203 192 191 198 188 190 195 198 200 210 205 209 212 207 207 211 213 209 208 208 223 230 234 309 242 180 197 195 194 200
153 157 215 161 61 284 232 214 195 180 175 170 169 149 148 121 99 150 178 199 205 211 212 217 216 227 232 227 217 218 205 223 223 202 180 195 197 231 137 193 183 220 206
159 188 225 74 201 6 358 202 170 162 156 155 160 139 95 74 7 18 9 251 242 219 212 204 203 216 233 222 229 227 234 225 238 234 227 195 187 191 161 130 179 202 198
153 144 84 162 172 49 41 65 113 152 172 196 206 197 269 246 227 252 268 275 264 245 212 216 215 228 238 246 243 235 227 235 245 239 231 231 213 217 208 194 197 160 165
54 45 359 317 294 39 109 56 48 85 172 214 250 236 251 243 250 260 259 252 257 261 255 256 246 248 243 237 236 235 229 235 248 246 248 234 217 216 219 203 182 179 173
56 67 54 60 67 80 93 197 252 235 236 257 279 224 241 250 244 252 264 253 249 250 240 244 249 247 241 240 244 240 228 228 251 257 234 227 224 235 224 226 230 200 184
65 56 53 56 59 69 72 69 75 84 73 230 250 253 245 250 260 263 256 255 249 248 254 250 245 238 241 244 250 231 236 234 239 225 219 223 221 218 219 223 225 217 191
77 72 65 62 65 62 59 60 60 57 48 33 66 171 233 241 249 255 251 250 248 250 249 237 234 236 240 245 236 227 233 228 216 213 212 212 210 206 210 217 218 220 213
55 53 43 51 52 56 51 46 45 47 39 26 12 359 318 280 263 266 260 256 260 260 262 256 250 249 247 242 235 227 222 213 208 205 207 210 210 213 213 211 211 211 209
56 42 40 39 40 45 37 36 31 27 24 16 9 355 337 322 316 293 274 251 256 254 251 246 249 249 244 239 234 231 225 212 209 207 208 210 211 208 206 211 208 206 200
48 46 38 39 36 35 31 22 20 19 11 5 359 352 346 335 318 303 293 278 271 259 250 248 241 236 237 235 234 230 220 211 215 214 214 210 206 208 210 210 208 203 192
31 32 25 22 20 16 12 9 3 0 357 353 350 342 337 334 326 311 298 283 282 279 264 249 247 244 233 227 223 223 218 217 214 212 209 210 215 216 215 213 207 198 186
27 9 6 8 354 4 355 359 357 355 348 345 338 331 332 329 321 317 313 299 283 275 271 257 250 238 234 234 226 215 216 218 215 202 200 206 204 207 207 211 206 204 198
84 28 11 354 7 356 356 356 339 347 350 346 339 337 337 330 326 322 313 304 291 284 267 260 254 245 239 234 228 220 215 207 220 205 196 194 195 199 200 198 205 214 218
36 54 60 16 0 353 351 347 342 342 338 338 333 333 329 323 317 315 311 311 306 287 274 262 254 252 246 243 237 223 216 210 202 217 204 200 196 200 203 203 203 207 210
359 1 351 345 344 351 351 347 344 341 341 336 332 331 326 318 315 311 306 305 302 299 287 267 258 249 249 247 240 223 213 209 212 208 205 198 199 200 199 200 196 198 204
337 334 339 342 344 340 336 338 339 338 335 333 330 327 322 315 303 291 286 287 288 286 283 277 266 256 246 243 240 226 217 207 205 208 206 203 201 194 192 195 192 189 195
314 322 326 321 316 326 334 327 313 316 319 317 312 312 313 315 313 305 293 281 278 277 273 268 266 259 251 245 234 225 214 212 203 200 201 203 204 193 192 196 196 198 194
225 253 273 294 307 309 303 304 312 306 301 297 297 302 306 308 308 306 301 295 282 271 260 257 255 250 243 240 239 228 220 211 209 205 204 206 198 196 190 194 197 192 188
253 267 280 296 300 294 312 302 302 302 296 296 294 298 297 300 299 301 294 291 285 275 263 254 245 242 235 232 234 229 219 210 212 215 214 207 197 194 192 192 191 181 186
270 281 278 291 290 305 313 305 308 312 307 301 303 304 299 300 299 299 300 279 276 272 263 253 240 226 219 217 218 217 211 205 200 209 210 203 190 189 191 187 186 189 192
300 309 301 305 317 324 320 314 326 323 320 316 314 311 307 304 300 295 291 289 288 268 265 258 246 224 217 214 219 213 206 201 197 192 190 177 177 182 186 186 188 191 192
324 331 325 321 330 328 325 327 333 330 327 319 319 317 316 308 306 302 297 292 287 285 266 263 243 228 231 232 220 222 213 205 189 179 173 177 179 183 183 181 186 192 194
Height
740 740 739 739 741 741 743 741 741 739 735 735 746 757 765 768 774 779 783 788 793 797 800 803 807 809 811 813 817 818 822 822 825 827 830 830 830 831 830 830 831 832 834
738 738 740 741 739 738 737 741 741 741 734 733 747 754 760 765 770 775 780 785 789 793 796 799 803 805 808 810 813 815 817 820 821 824 826 828 828 826 827 827 829 830 832
738 739 741 740 739 738 734 740 739 735 739 738 746 756 762 765 769 775 778 782 786 788 792 795 798 801 804 805 807 810 812 816 818 820 824 829 827 825 825 825 826 828 830
736 737 740 738 733 733 731 737 738 740 743 743 750 758 762 765 768 770 775 779 781 786 788 791 795 798 800 802 804 806 808 811 813 815 816 822 825 823 825 824 824 826 827
736 738 740 736 728 732 734 735 736 740 740 747 753 758 761 767 766 772 774 779 782 785 787 789 793 796 799 801 803 803 805 808 811 808 811 814 814 819 820 823 823 824 825
735 737 738 730 740 738 733 729 733 735 740 749 755 755 758 762 766 773 777 776 783 781 781 786 789 793 795 799 801 801 801 806 806 806 809 806 811 813 814 819 820 821 823
730 736 737 740 740 738 732 728 732 735 742 747 750 753 756 763 771 773 776 780 783 781 782 783 785 789 791 794 797 797 797 800 801 803 803 807 804 808 810 813 815 817 820
740 742 741 741 740 738 736 740 739 740 745 748 749 751 757 762 765 766 772 774 775 776 777 782 784 786 787 788 791 792 789 793 796 795 797 801 801 803 806 809 813 814 816
745 747 747 746 744 745 746 747 745 747 748 747 749 749 754 759 760 763 766 768 770 772 773 776 776 776 779 780 781 782 783 785 787 788 790 794 796 800 803 806 808 808 815
751 752 751 748 748 746 746 743 746 748 745 747 751 751 755 758 760 762 762 762 764 765 764 765 766 766 768 771 771 774 775 778 777 781 785 789 792 796 798 802 804 805 807
756 756 753 751 750 748 747 749 750 750 749 749 750 751 755 758 756 754 756 757 757 756 755 758 758 759 762 763 765 768 768 771 770 776 780 784 786 788 791 796 800 804 805
759 756 757 756 755 756 756 755 753 751 751 751 751 754 757 758 757 755 754 754 753 753 751 751 753 753 754 757 759 761 762 762 766 770 777 780 783 786 789 790 793 795 797
764 763 761 758 761 761 761 756 752 752 755 756 755 757 756 754 753 753 752 752 753 750 750 749 749 749 750 752 755 757 755 758 762 767 769 774 779 781 784 790 791 792 794
767 768 770 769 770 769 762 760 760 759 761 760 758 759 756 754 751 748 750 750 748 747 745 743 741 741 744 747 751 753 754 757 760 761 766 770 771 775 781 783 787 791 790
770 771 770 775 772 768 767 765 766 764 764 761 758 756 755 753 752 749 748 742 741 742 741 737 738 740 739 738 741 745 750 753 755 760 762 767 771 774 776 782 786 789 788
778 779 770 767 772 767 766 762 763 763 762 758 758 757 752 750 748 746 743 741 739 739 737 735 734 734 735 737 736 736 741 748 751 754 757 761 765 771 772 777 780 783 786
783 781 782 782 773 771 768 767 772 765 761 758 758 755 750 749 747 745 742 739 735 733 734 730 732 729 729 730 731 733 733 738 748 750 751 754 757 761 767 771 775 778 780
780 778 781 779 777 776 771 768 767 765 761 758 759 753 752 749 748 742 738 734 730 726 724 725 724 725 724 726 727 727 729 733 733 745 744 747 751 756 761 765 769 772 775
774 775 777 775 774 770 768 763 760 759 757 756 753 750 749 745 740 735 734 728 724 723 721 717 718 716 716 719 724 726 726 727 733 735 737 737 743 749 755 760 763 767 771
781 781 778 776 778 775 772 767 761 755 749 745 743 742 743 741 739 733 730 724 723 718 713 709 710 711 708 708 716 720 723 724 726 731 730 732 736 738 743 752 758 760 766
783 783 784 784 781 776 770 767 769 762 759 753 751 746 741 731 727 723 719 715 710 706 704 701 701 699 702 703 707 710 715 719 723 720 724 727 735 734 739 744 749 753 762
785 786 784 781 778 777 774 771 767 764 762 760 755 747 737 729 722 715 709 706 702 699 698 693 696 695 696 697 701 700 704 712 718 717 719 723 728 734 737 741 747 750 756
783 781 780 779 777 774 772 769 767 764 760 756 749 744 736 729 722 714 706 699 694 690 685 685 686 685 690 689 693 695 696 701 708 713 714 719 725 731 739 739 743 747 750
777 776 776 775 773 771 770 766 763 759 755 750 745 739 731 724 718 711 703 693 688 683 680 678 677 678 683 684 685 690 693 695 700 707 713 717 720 728 733 739 743 743 748
772 771 770 767 765 763 760 758 755 750 745 741 736 731 725 718 711 705 697 690 682 676 672 671 670 672 673 672 676 681 684 687 690 698 706 712 716 724 728 732 736 742 746
766 764 763 761 759 756 754 751 748 745 740 734 729 724 718 711 704 696 686 680 673 666 662 661 660 660 661 664 667 672 675 680 684 686 696 702 706 714 720 724 731 736 742